FW9015 Weather Reports


time (UTC)temp
F
wind
direction
speed
knots
gust
knots
rain 1hr
in
rain 24hr
in
rain mn
in
humidity
%
barometer
mb
20260507204544 56 0 0.0 0.9 0.00 0.00 0.00 100 1010.5
20260507203048 56 341 1.7 3.5 0.00 0.00 0.00 100 1010.7
20260507201540 57 297 0.0 3.5 0.00 0.00 0.00 100 1010.1
20260507200048 57 37 0.9 3.5 0.00 0.00 0.00 100 1010.3
20260507194542 57 0 0.0 0.9 0.00 0.00 0.00 100 1010.6
20260507193040 58 0 0.0 0.9 0.00 0.00 0.00 100 1010.8
20260507191544 58 0 0.0 1.7 0.00 0.00 0.00 100 1010.5
20260507190046 58 171 0.0 0.9 0.00 0.00 0.00 100 1010.6
20260507184545 58 140 0.9 3.5 0.00 0.00 0.00 100 1010.9
20260507183044 57 67 0.0 4.3 0.00 0.00 0.00 100 1010.7
20260507181539 57 32 0.9 3.5 0.00 0.00 0.00 100 1010.8
20260507180045 57 270 0.0 3.5 0.00 0.00 0.00 100 1011.3
20260507174550 57 74 1.7 4.3 0.00 0.00 0.00 100 1011.5
20260507173049 57 349 1.7 6.1 0.00 0.00 0.00 100 1011.9
20260507171605 57 339 0.9 4.3 0.00 0.00 0.00 100 1011.6
20260507170044 57 33 1.7 4.3 0.00 0.00 0.00 100 1011.8
20260507164600 57 13 0.9 6.1 0.00 0.02 0.00 100 1011.9
20260507163046 57 326 1.7 7.0 0.00 0.02 0.00 100 1012.0
20260507161547 57 340 1.7 7.0 0.00 0.02 0.00 100 1012.1
20260507160042 57 26 2.6 9.6 0.00 0.02 0.00 100 1012.1
20260507154539 57 348 1.7 7.8 0.00 0.03 0.00 100 1012.3
20260507153048 57 28 1.7 6.1 0.00 0.03 0.00 100 1012.3
20260507151544 57 11 2.6 7.8 0.00 0.03 0.00 100 1012.7
20260507150043 57 76 3.5 8.7 0.00 0.03 0.00 100 1012.8
20260507144540 57 27 4.3 11.3 0.00 0.03 0.00 100 1012.8
20260507143049 57 323 2.6 8.7 0.00 0.03 0.00 100 1012.8
20260507141552 57 105 2.6 8.7 0.00 0.03 0.00 100 1012.8
20260507140043 57 15 3.5 10.4 0.00 0.03 0.00 100 1012.5
20260507134548 57 75 1.7 9.6 0.00 0.03 0.00 100 1012.6
20260507133039 56 65 3.5 8.7 0.00 0.03 0.00 100 1012.5
20260507131540 56 342 2.6 10.4 0.00 0.03 0.00 100 1012.7
20260507130041 56 348 1.7 10.4 0.00 0.03 0.00 100 1012.3
20260507124544 56 28 3.5 10.4 0.00 0.03 0.00 100 1012.6
20260507123039 56 298 4.3 10.4 0.00 0.03 0.00 100 1012.6
20260507121540 56 13 2.6 13.9 0.00 0.03 0.00 100 1012.5
20260507120046 57 31 5.2 13.0 0.00 0.03 0.00 100 1012.5
20260507114543 58 304 2.6 11.3 0.00 0.03 0.00 100 1012.5
20260507113040 58 335 2.6 11.3 0.00 0.03 0.00 100 1012.3
20260507111544 58 315 3.5 13.9 0.00 0.03 0.00 100 1012.2
20260507110100 58 24 5.2 10.4 0.00 0.03 0.00 100 1011.6
20260507104547 58 48 4.3 13.9 0.00 0.03 0.00 100 1011.4
20260507103045 59 348 5.2 11.3 0.00 0.03 0.00 100 1011.7
20260507101546 58 316 5.2 13.0 0.00 0.03 0.00 100 1011.6
20260507100040 59 300 3.5 13.9 0.00 0.03 0.00 100 1011.2
20260507094540 59 264 7.8 15.6 0.00 0.03 0.00 100 1011.4
20260507093053 59 315 5.2 13.0 0.00 0.03 0.00 100 1011.3
20260507091602 59 40 3.5 12.2 0.00 0.03 0.00 100 1010.8
20260507090046 59 291 4.3 11.3 0.00 0.03 0.00 100 1010.6
20260507084542 59 310 6.1 15.6 0.00 0.03 0.00 100 1010.6
20260507083040 60 338 6.1 18.2 0.00 0.03 0.00 100 1010.7
20260507081545 61 48 6.1 14.8 0.00 0.03 0.00 100 1010.8
20260507080043 61 19 5.2 13.0 0.00 0.03 0.00 100 1010.7
20260507074545 62 355 5.2 11.3 0.00 0.03 0.00 100 1010.2
20260507073041 66 28 2.6 7.8 0.00 0.03 0.00 100 1009.6
20260507071538 66 26 1.7 4.3 0.00 0.03 0.00 100 1009.1
20260507070053 67 331 2.6 4.3 0.00 0.03 0.00 100 1008.7
20260507064546 68 49 0.0 0.9 0.00 0.03 0.00 100 1008.9
20260507063039 69 0 0.0 0.9 0.00 0.03 0.00 100 1008.9
20260507061540 69 50 0.0 5.2 0.00 0.03 0.00 100 1008.8
20260507054538 69 227 1.7 4.3 0.00 0.03 0.00 100 1009.4
20260507053051 70 207 1.7 7.0 0.00 0.03 0.00 100 1009.5
20260507051542 70 243 1.7 4.3 0.00 0.03 0.00 100 1009.6
20260507050042 70 222 0.9 7.0 0.00 0.03 0.00 100 1009.7
20260507044539 70 246 2.6 7.8 0.00 0.03 0.00 100 1009.8
20260507043038 70 219 1.7 6.1 0.00 0.03 0.00 100 1009.9
20260507041539 69 226 2.6 6.1 0.00 0.03 0.00 100 1009.9
20260507040043 69 271 0.9 7.0 0.00 0.03 0.00 100 1009.7
20260507034552 69 145 0.9 4.3 0.00 0.03 0.03 100 1009.6
20260507033043 69 240 0.9 6.1 0.00 0.03 0.03 100 1009.6
20260507031538 69 219 1.7 5.2 0.00 0.03 0.03 100 1009.5
20260507030040 68 217 0.9 3.5 0.00 0.03 0.03 100 1009.5
20260507024554 68 222 0.0 3.5 0.00 0.03 0.03 100 1009.6
20260507023040 68 229 0.9 2.6 0.00 0.03 0.03 100 1009.9
20260507021546 68 0 0.9 2.6 0.00 0.03 0.03 100 1010.0
20260507020039 68 229 0.9 3.5 0.00 0.03 0.03 100 1010.0
20260507014545 68 159 0.9 2.6 0.00 0.03 0.03 100 1009.9
20260507013038 68 213 0.0 1.7 0.00 0.03 0.03 100 1010.1
20260507011544 68 221 0.0 1.7 0.00 0.03 0.03 100 1010.3
20260507010049 68 222 0.9 1.7 0.00 0.03 0.03 100 1010.2
20260507004538 69 231 0.0 1.7 0.00 0.03 0.03 100 1010.2
20260507003040 69 213 0.9 1.7 0.00 0.03 0.03 100 1010.0
20260507001546 70 190 0.9 0.9 0.00 0.03 0.03 100 1010.1
20260507000043 70 226 0.9 2.6 0.00 0.03 0.03 100 1009.9
20260506234542 71 229 0.9 2.6 0.00 0.03 0.03 100 1010.0
20260506233041 72 149 0.9 2.6 0.00 0.03 0.03 100 1010.0
20260506231539 72 173 0.9 3.5 0.00 0.03 0.03 100 1009.9
20260506230044 72 205 0.9 4.3 0.00 0.03 0.03 100 1010.0
20260506224544 73 213 1.7 7.8 0.00 0.03 0.03 100 1009.7
20260506223043 73 260 2.6 9.6 0.00 0.03 0.03 100 1009.9
20260506221547 73 211 3.5 11.3 0.00 0.03 0.03 100 1010.0
20260506220050 73 232 1.7 3.5 0.00 0.03 0.03 100 1010.1
20260506214539 73 221 1.7 4.3 0.00 0.03 0.03 100 1010.0
20260506213043 72 188 0.0 2.6 0.00 0.03 0.03 100 1009.8
20260506211551 72 222 0.0 1.7 0.00 0.03 0.03 100 1009.9
20260506210043 71 244 0.0 1.7 0.00 0.03 0.03 100 1009.8